User: anonymous
Location: Lawrence Hall of Science
(37.8785°N, 122.2415°W)
Time: 02:49:58
(UTC-07:00)
Language:

Cosmos 1461 - Orbit

View from above orbital plane
View from above orbital plane
View from above satellite
View from above satellite

Ground track
Ground track

The orbit data is extracted from the following two-line orbital elements,

1 14064U 83044A   14212.73796410  .00002269  00000-0  23900-3 0  5768
2 14064 065.0048 289.8103 0093976 102.6559 038.0768 14.88745521566489
Epoch (UTC): 31 July 2014 17:42:40
Eccentricity: 0.0093976
inclination: 65.0048°
perigee height: 536 km
apogee height: 667 km
right ascension of ascending node: 289.8103°
argument of perigee: 102.6559°
revolutions per day: 14.88745521
mean anomaly at epoch: 38.0768°
orbit number at epoch: 56648

The dashed part of the orbit path shows where the satellite is in the earth's shadow,  

DLR